Showing default

GALILEO 14 (26B), 41549

Orbit data source: Space-Track

GALILEO 14 (26B), 41549 is a payload satellite owned by GNSS Agency (ESA) that was launched on Tue, 24 May 2016 UTC via a SOYUZ-ST-B launch vehicle from the French Guiana (FRGUI). Payload-class satellites include a variety of spacecraft equipped with specific instruments for various scientific and technological missions. These include communications satellites like Starlink; space stations such as the ISS; scientific satellites like the Hubble; Earth observation satellites from companies like Planet Labs, Umbra, and HawkEye 360; GPS; miniature CubeSats for education and research; and military/defense satellites.

Loading next visibility...
Identifier
41549, 2016-030A
Orbit
Active
Country
Flag of ESAESA
Related business
Manufacturer
OHB
Mission
Operational Civil Navigation
Bus & Motor
GALILEOSAT, AOCS
Mass
733 kg wet, 660 kg dry
Launch date (UTC)
2016-05-24 (10 years ago)
Launch vehicle
SOYUZ-ST-B
Launch site
French Guiana (FRGUI)
Object type
Payload
Rocket body
Debris
Shape & HBR
Box + 2 Pan, 7.3 m
Radar Cross Section
9.223 m², Large (>1 m²)

Expand to show TLE details & history
Last TLE update: 1 day ago

TLE from 1 day ago
0 GALILEO 14 (26B)
1 41549U 16030A   26150.19893910  .00000027  00000-0  00000-0 0  9996
2 41549  55.1000 222.1898 0002667 330.7008  29.3675  1.70474116 62360
Epoch: 2026-05-30T04:46Z
TLE epoch observation values (Epoch: 2026-05-30T04:46:28.338Z)
Latitude
-0.00001°
Longitude
-97.14253°
Altitude
23,215.545 km
Speed
3.671 km/s
True Right ascension
14h 48m 46s
True Declination
0° 00' 00"
Sunlit
Object was in daylight at epoch
Visualization orbit readout
Latitude
Unknown
Longitude
Unknown
Altitude
Unknown
Speed
Unknown
Apparent Right ascension
Unknown
Apparent Declination
Unknown
Sunlit
N/A
Visualization observer readout
Local Sidereal Time
19:40:46
Azimuth
Unknown
Elevation
Unknown
Doppler factor
Unknown
Orbital elements
Apogee altitude
23,230.069 km
Perigee altitude
23,214.28 km
Semi-major axis
29,600.311 km
Eccentricity
0.00027
Inclination
55.1°
RAAN
222.1898°
Arg. of periapsis
330.7008°
True anomaly
29.38249°
Mean anomaly
29.3675°
Eccentric anomaly
29.375°
Mean motion
0.42619 °/min
Orbital period
844.7 mins
BSTAR
0
Loading maneuver chart data...
Computing Atmospheric mass density...
Loading historical data...
Loading historical data...
Loading historical data...
Loading historical data...
Loading historical data...
Loading historical data...
Loading historical data...
Other satellites on launch #30 in the year 2016 (2016-05-24 UTC)

Documentation

Showing up to 5 results
|